Regional Weather Roundup
Issued by NWS

Home | Current Version | Previous Version | Graphics & Text | Print | Product List | Glossary On
Versions: 1 2 3 4 5 6 7 8 9 10 11 12 13 14 15 16 17 18 19 20 21 22 23 24 25 26 27 28 29 30 31 32 33 34 35 36 37 38 39 40 41 42 43 44 45 46 47 48 49 50
000
ASUS45 KPSR 240410
RWRAZ

ARIZONA HOURLY REGIONAL WEATHER ROUNDUP
NATIONAL WEATHER SERVICE PHOENIX AZ
900 PM MST MON APR 23 2018

NOTE: FAIR INDICATES FEW OR NO CLOUDS BELOW 12,000 FEET WITH NO
SIGNIFICANT WEATHER AND/OR OBSTRUCTIONS TO VISIBILITY.

AZZ001>003-036-240500-
NORTHWEST ARIZONA

CITY           SKY/WX    TMP DP  RH WIND       PRES   REMARKS
BULLHEAD CITY  PTCLDY    88  25  10 CALM      29.82R
KINGMAN        PTCLDY    69  21  16 S12       30.00R
$$

AZZ004>008-015-016-018-240500-
NORTH CENTRAL ARIZONA

CITY           SKY/WX    TMP DP  RH WIND       PRES   REMARKS
GRAND CANYON   CLEAR     45  14  28 CALM      30.18R
WILLIAMS       CLEAR     61  12  15 SW9       30.18R
PRESCOTT       PTCLDY    65  20  17 SW9       30.11R
FLAGSTAFF      CLEAR     54  18  24 SW7       30.22R
PAYSON         PTCLDY    64  14  14 W5        30.12R
PAGE           PTCLDY    74  18  12 SW3       29.99R
$$

AZZ009>014-017-240500-
NORTHEAST ARIZONA

CITY           SKY/WX    TMP DP  RH WIND       PRES   REMARKS
WINSLOW        CLEAR     68  17  14 SW15      30.07R
SAINT JOHNS    CLEAR     62  17  17 W12       30.10R
WINDOW ROCK    CLEAR     54   8  16 CALM      30.16R
SHOW LOW       PTCLDY    55  12  18 S7        30.20R
$$

AZZ540-542>544-546-548-240500-
GREATER PHOENIX AREA

CITY           SKY/WX    TMP DP  RH WIND       PRES   REMARKS
PHOENIX        MOCLDY    85  25  11 SW3       29.85R
BUCKEYE        PTCLDY    81  23  12 NW6       29.87S
DEER VALLEY    MOCLDY    82  20  10 CALM      29.88R
SCOTTSDALE     MOCLDY    83  29  14 CALM      29.90R
MESA-GATEWAY   PTCLDY    82  25  12 NW6       29.89R
CHANDLER       MOCLDY    84  23  10 NW3       29.87R
$$

AZZ539-553-240500-
SOUTHWEST MARICOPA COUNTY AND PINAL COUNTY

CITY           SKY/WX    TMP DP  RH WIND       PRES   REMARKS
CASA GRANDE    PTCLDY    80  23  12 NW8       29.90R
$$

AZZ503-504-507>509-240500-
SOUTHEAST ARIZONA

CITY           SKY/WX    TMP DP  RH WIND       PRES   REMARKS
TUCSON         CLEAR     78  23  13 MISG      29.98R
DAVIS-MONTHAN  CLEAR     76  22  13 NW6       29.96R
NOGALES        CLEAR     66  18  15 CALM      30.06R
SIERRA VISTA   CLEAR     69  16  13 W8        30.12R
DOUGLAS        CLEAR     77  13   9 W12       30.06R
SAFFORD        CLEAR     76  17  11 W10       29.96R
$$

AZZ532-240500-
SOUTHWEST ARIZONA

CITY           SKY/WX    TMP DP  RH WIND       PRES   REMARKS
YUMA           PTCLDY    83  37  19 SW7       29.85R
$$

CAZ041-043-047-048-061-525>527-560>570-240500-
SOUTHERN CALIFORNIA

CITY           SKY/WX    TMP DP  RH WIND       PRES   REMARKS
DOWNTOWN L.A.  CLOUDY    57  53  86 W3        29.99R
L.A. AIRPORT   CLOUDY    55  52  89 SW6       30.00R
SAN DIEGO      PTCLDY    61  55  81 W6        30.03R
BURBANK        CLEAR     61  54  77 SE6       29.98R
ONTARIO        MOCLDY    67  49  52 SW9       29.99R
RIVERSIDE      PTCLDY    69  43  38 VRB6      29.99R
PALM SPRINGS   MOCLDY    89  34  14 NW16G25   29.86R
EL CENTRO NAS  MOCLDY    83  35  18 SW6       29.84R
IMPERIAL       MOCLDY    83  39  21 SW8       29.82R
BLYTHE         PTCLDY    88  25  10 W8        29.83R
NEEDLES        PTCLDY    90  20   7 SW10      29.83R
$$

NVZ020-UTZ003-240500-
SOUTHERN NEVADA-UTAH

CITY           SKY/WX    TMP DP  RH WIND       PRES   REMARKS
LAS VEGAS      PTCLDY    83  20   9 SW6       29.88R
SALT LAKE CITY CLEAR     56  33  42 N9        30.17R
$$

NMZ009-TXZ055-240500-
NEW MEXICO-WEST TEXAS

CITY           SKY/WX    TMP DP  RH WIND       PRES   REMARKS
ALBUQUERQUE    PTCLDY    67  23  19 S10       30.06R
EL PASO        MOCLDY    77  23  13 CALM      30.01S
$$


........................KEY........................
SKY/WX - SKY CONDITION/WEATHER
TMP    - TEMPERATURE IN FAHRENHEIT
DP     - DEW POINT IN FAHRENHEIT
RH     - RELATIVE HUMIDITY IN PERCENT
WIND   - DIRECTION AND SPEED IN MILES PER HOUR (MPH)
VRB    - VARIABLE WIND DIRECTION
PRES   - MEAN SEA LEVEL PRESSURE IN INCHES OF MERCURY
         F - FALLING PRESSURE   R - RISING PRESSURE
         S - STEADY PRESSURE
VSB    - VISIBILITY IN MILES
HX     - HEAT INDEX IN FAHRENHEIT
WCI    - WIND CHILL INDEX IN FAHRENHEIT
TC     - TEMPERATURE IN CELSIUS WHICH IS ALSO KNOWN AS
         TEMPERATURE IN CENTIGRADE
AFB    - AIR FORCE BASE
         LUKE AFB IS LUKE AIR FORCE BASE
         DAVIS-MONTHAN IS DAVIS-MONTHAN AIR FORCE BASE
NAS    - NAVAL AIR STATION
         EL CENTRO NAS IS EL CENTRO NAVAL AIR STATION
N/A    - NOT AVAILABLE




USA.gov is the U.S. government's official web portal to all federal, state and local government web resources and services.